Flag for Russia Weather past 2 weeks in Kaliningrad, Russia

Now
54 °F

Clear.


Feels Like: 54 °F
Forecast: 49 / 74 °F
Wind: 1 mph from Southwest

Location: Kaliningrad/Khrabrovo Airport

Current Time: Aug 30, 2015 at 12:02:13 AM

Latest Report: Aug 29, 2015 at 11:00 PM


Visibility: 10 mi

Pressure: 30.24 "Hg

Humidity: 88%

Dew point: 50 °F

Location of KaliningradLocation

Historic Weather in Kaliningrad — Graph

°F

Kaliningrad temperature yesterday

Maximum temperature yesterday: 70 °F (at 11:30 AM)
Minimum temperature yesterday: 52 °F (at 12:00 AM)
Average temperature yesterday: 60 °F

Past Weeks' High & Low Weather Summary

 TemperatureHumidityPressure
High84 °F (Aug 25, 12:30 PM)100% (Aug 26, 5:00 AM)30.42 "Hg (Aug 26, 5:00 AM)
Low46 °F (Aug 19, 4:30 AM)28% (Aug 24, 1:00 PM)29.77 "Hg (Aug 28, 4:00 AM)
Average65 °F66%30.10 "Hg
* Reported Aug 14 10:00 PM — Aug 29 10:30 PM, Kaliningrad, Weather by CustomWeather, © 2015

Note: Actual official high and low records may vary slightly from our data, if they occured in-between our weather recording intervals... More about our weather records

Advertising

Kaliningrad weather history for previous 24 hours

 ConditionsComfort  
Time TempWeatherWind HumidityBarometerVisibility
10:30 PM
Sat, Aug 29
54 °FClear.3 mph88%30.24 "Hg10 mi
10:00 PM54 °FClear.1 mph88%30.24 "Hg10 mi
9:30 PM54 °FSunny.1 mph88%30.24 "Hg10 mi
9:00 PM55 °FPassing clouds.3 mph88%30.24 "HgN/A
8:00 PM59 °FPassing clouds.3 mph77%30.24 "HgN/A
7:30 PM61 °FPassing clouds.3 mph77%30.24 "HgN/A
7:00 PM63 °FPassing clouds.3 mph73%30.24 "HgN/A
6:30 PM64 °FPassing clouds.6 mph68%30.24 "HgN/A
6:00 PM64 °FPassing clouds.6 mph68%30.24 "HgN/A
5:30 PM66 °FPassing clouds.8 mph60%30.24 "HgN/A
5:00 PM66 °FPassing clouds.8 mph60%30.24 "HgN/A
4:30 PM66 °FScattered clouds.10 mph60%30.24 "HgN/A
4:00 PM68 °FScattered clouds.13 mph60%30.24 "HgN/A
3:00 PM68 °FPartly sunny.10 mph60%30.24 "HgN/A
2:30 PM68 °FPartly sunny.10 mph64%30.24 "HgN/A
1:30 PM68 °FPartly sunny.13 mph64%30.24 "HgN/A
1:00 PM66 °FScattered clouds.10 mph68%30.24 "HgN/A
12:00 PM66 °FScattered clouds.10 mph60%30.21 "HgN/A
11:30 AM70 °FScattered clouds.10 mph64%30.21 "HgN/A
11:00 AM66 °FScattered clouds.10 mph68%30.18 "HgN/A
10:00 AM66 °FScattered clouds.8 mph73%30.18 "HgN/A
9:00 AM64 °FPartly sunny.10 mph83%30.15 "HgN/A
8:00 AM61 °FScattered clouds.8 mph88%30.15 "HgN/A
7:30 AM59 °FPassing clouds.6 mph88%30.15 "HgN/A
7:00 AM55 °FPassing clouds.6 mph94%30.15 "HgN/A
6:30 AM54 °FPassing clouds.6 mph94%30.12 "HgN/A
6:00 AM54 °FPassing clouds.6 mph94%30.12 "HgN/A
5:00 AM54 °FClear.6 mph94%30.09 "Hg10 mi
4:30 AM54 °FClear.6 mph94%30.09 "Hg10 mi
4:00 AM54 °FClear.6 mph94%30.09 "Hg10 mi
3:00 AM52 °FClear.8 mph94%30.09 "Hg10 mi
2:00 AM54 °FPassing clouds.6 mph94%30.09 "HgN/A
1:00 AM54 °FPassing clouds.8 mph94%30.07 "HgN/A
12:00 AM52 °FPassing clouds.6 mph94%30.07 "HgN/A
Weather by CustomWeather, © 2015

See weather overviewHow to use our weather pages